Location: Sungai Dangang
(2.7500°N, 113.8333°E)
Time: 19:06:51
(UTC+00:00)

CZ-3B Rocket - Pass Details

Date: 16 May 2021
Orbit: 585 x 35770 km, 18.8° (Epoch: 19 June)

Event Time Altitude Azimuth Distance (km) Brightness Sun altitude
Exits shadow 19:45:43 46° 164° (SSE) 1,970 3.9 -35.1°
Maximum altitude 19:46:36 47° 147° (SSE) 2,125 4.1 -34.9°
Drops below altitude 10° 05:26:17 10° 92° (E) 14,433 8.4 67.0°
Sets 05:35:23 0° 95° (E) 13,177 8.1 65.4°
